This is the latest recevied weather packets stored in our database for station/object AE5HO. If no packets are shown the sender has not sent any weather packets the latest 10 day(s).
| Time | Temp. | Humidity | Pressure | Rain* | Wind** | Luminosity | Snow |
|---|---|---|---|---|---|---|---|
| 1787417175 | 37.78° C | 42% | 1018.2 hPa | 0 mm | - | 410 W/m² | - |
| 1787416871 | 37.78° C | 41% | 1018.3 hPa | 0 mm | - | 377 W/m² | - |
| 1787416567 | 37.78° C | 41% | 1018.3 hPa | 0 mm | - | 446 W/m² | - |
| 1787416261 | 37.78° C | 42% | 1018.5 hPa | 0 mm | - | 443 W/m² | - |
| 1787415957 | 37.22° C | 42% | 1018.5 hPa | 0 mm | - | 411 W/m² | - |
| 1787415656 | 37.78° C | 44% | 1018.4 hPa | 0 mm | - | 362 W/m² | - |
| 1787415352 | 37.22° C | 43% | 1018.4 hPa | 0 mm | - | 429 W/m² | - |
| 1787415047 | 36.67° C | 45% | 1018 hPa | 0 mm | - | 445 W/m² | - |
| 1787414743 | 36.67° C | 45% | 1018.3 hPa | 0 mm | - | 362 W/m² | - |
| 1787414438 | 36.67° C | 45% | 1018.2 hPa | 0 mm | - | 439 W/m² | - |
| 1787414136 | 36.67° C | 46% | 1018.3 hPa | 0 mm | - | 492 W/m² | - |
| 1787413831 | 36.11° C | 46% | 1018.1 hPa | 0 mm | - | 286 W/m² | - |
| 1787413526 | 35.56° C | 49% | 1018.1 hPa | 0 mm | - | 327 W/m² | - |
| 1787413221 | 35.56° C | 48% | 1018.3 hPa | 0 mm | - | 347 W/m² | - |
| 1787412917 | 35° C | 48% | 1018.2 hPa | 0 mm | - | 243 W/m² | - |
| 1787412612 | 35° C | 50% | 1017.9 hPa | 0 mm | - | 347 W/m² | - |
| 1787412307 | 35° C | 50% | 1017.9 hPa | 0 mm | - | 347 W/m² | - |
| 1787412003 | 34.44° C | 51% | 1017.9 hPa | 0 mm | - | 279 W/m² | - |
| 1787411700 | 33.89° C | 52% | 1017.7 hPa | 0 mm | - | 191 W/m² | - |
| 1787411395 | 33.89° C | 52% | 1017.8 hPa | 0 mm | - | 251 W/m² | - |
| 1787411091 | 33.89° C | 53% | 1017.6 hPa | 0 mm | - | 141 W/m² | - |
| 1787410786 | 33.33° C | 54% | 1017.5 hPa | 0 mm | - | 122 W/m² | - |
| 1787410482 | 32.78° C | 55% | 1017.8 hPa | 0 mm | - | 124 W/m² | - |
| 1787410177 | 32.78° C | 56% | 1017.5 hPa | 0 mm | - | 102 W/m² | - |
| 1787409873 | 32.22° C | 57% | 1017.5 hPa | 0 mm | - | 98 W/m² | - |
* Rain latest hour (hover to see other rain measurements)
** Current wind speed in m/s (hover to see current wind gust speed)